Time,TemperatureF,DewpointF,PressureIn,WindDirection,WindDirectionDegrees,WindSpeedMPH,WindSpeedGustMPH,Humidity,HourlyPrecipIn,Conditions,Clouds,dailyrainin,SolarRadiationWatts/m^2,SoftwareType,DateUTC
2013-03-01 00:01:00,49.9,46.2,30.51,NW,317,0.0,0.0,87,0.00,,,0.00,0.0,custom,2013-03-01 08:01:00,
2013-03-01 00:06:00,50.0,46.3,30.51,NW,317,0.0,0.0,87,0.00,,,0.00,0.0,custom,2013-03-01 08:06:00,
2013-03-01 00:11:00,50.1,46.7,30.50,NW,317,0.0,0.0,88,0.00,,,0.00,0.0,custom,2013-03-01 08:11:00,
2013-03-01 00:16:00,50.0,46.6,30.50,NW,317,0.0,0.0,88,0.00,,,0.00,0.0,custom,2013-03-01 08:16:00,
2013-03-01 00:21:00,49.9,46.5,30.50,NW,317,0.0,0.0,88,0.00,,,0.00,0.0,custom,2013-03-01 08:21:00,
2013-03-01 00:26:00,49.7,46.3,30.50,NW,317,0.0,0.0,88,0.00,,,0.00,0.0,custom,2013-03-01 08:26:00,
2013-03-01 00:31:00,49.6,46.2,30.50,NW,317,0.0,0.0,88,0.00,,,0.00,0.0,custom,2013-03-01 08:31:00,
2013-03-01 00:36:00,49.6,46.2,30.50,NW,317,0.0,0.0,88,0.00,,,0.00,0.0,custom,2013-03-01 08:36:00,
2013-03-01 00:41:00,49.6,46.2,30.50,NW,317,0.0,0.0,88,0.00,,,0.00,0.0,custom,2013-03-01 08:41:00,
2013-03-01 00:46:00,49.6,46.2,30.50,NW,317,0.0,0.0,88,0.00,,,0.00,0.0,custom,2013-03-01 08:46:00,
2013-03-01 00:51:00,49.6,46.2,30.50,NW,317,0.0,0.0,88,0.00,,,0.00,0.0,custom,2013-03-01 08:51:00,
2013-03-01 01:01:00,49.8,46.1,30.50,NW,317,0.0,0.0,87,0.00,,,0.00,0.0,custom,2013-03-01 09:01:00,
2013-03-01 01:11:00,50.1,46.1,30.50,NW,317,0.0,0.0,86,0.00,,,0.00,0.0,custom,2013-03-01 09:11:00,
2013-03-01 01:16:00,50.2,46.2,30.51,NW,317,0.0,0.0,86,0.00,,,0.00,0.0,custom,2013-03-01 09:16:00,
2013-03-01 01:21:00,50.2,46.2,30.50,NW,317,0.0,0.0,86,0.00,,,0.00,0.0,custom,2013-03-01 09:21:00,
2013-03-01 01:26:00,50.2,46.2,30.50,NW,317,0.0,0.0,86,0.00,,,0.00,0.0,custom,2013-03-01 09:26:00,
2013-03-01 01:31:00,50.2,46.2,30.50,NW,317,0.0,0.0,86,0.00,,,0.00,0.0,custom,2013-03-01 09:31:00,
2013-03-01 01:36:00,50.2,46.2,30.50,NW,317,0.0,0.0,86,0.00,,,0.00,0.0,custom,2013-03-01 09:36:00,
2013-03-01 01:41:00,50.3,46.3,30.50,NW,317,0.0,0.0,86,0.00,,,0.00,0.0,custom,2013-03-01 09:41:00,
2013-03-01 01:46:00,50.3,46.3,30.50,NW,317,0.0,0.0,86,0.00,,,0.00,0.0,custom,2013-03-01 09:46:00,
2013-03-01 01:51:00,50.3,46.3,30.50,NW,317,0.0,0.0,86,0.00,,,0.00,0.0,custom,2013-03-01 09:51:00,
2013-03-01 01:56:00,50.2,46.2,30.50,NW,317,0.0,0.0,86,0.00,,,0.00,0.0,custom,2013-03-01 09:56:00,
2013-03-01 02:01:00,50.2,46.5,30.50,NW,317,0.0,0.0,87,0.00,,,0.00,0.0,custom,2013-03-01 10:01:00,
2013-03-01 02:06:00,50.1,46.4,30.50,NW,317,0.0,0.0,87,0.00,,,0.00,0.0,custom,2013-03-01 10:06:00,
2013-03-01 02:11:00,50.1,46.4,30.50,NW,317,0.0,0.0,87,0.00,,,0.00,0.0,custom,2013-03-01 10:11:00,
2013-03-01 02:16:00,50.1,46.1,30.50,NW,317,0.0,0.0,86,0.00,,,0.00,0.0,custom,2013-03-01 10:16:00,
2013-03-01 02:21:00,50.2,46.2,30.50,NW,317,0.0,0.0,86,0.00,,,0.00,0.0,custom,2013-03-01 10:21:00,
2013-03-01 02:26:00,50.3,46.3,30.50,NW,317,0.0,0.0,86,0.00,,,0.00,0.0,custom,2013-03-01 10:26:00,
2013-03-01 02:31:00,50.3,46.3,30.50,NW,317,0.0,0.0,86,0.00,,,0.00,0.0,custom,2013-03-01 10:31:00,
2013-03-01 02:36:00,50.3,46.3,30.50,NW,317,0.0,0.0,86,0.00,,,0.00,0.0,custom,2013-03-01 10:36:00,
2013-03-01 02:41:00,50.1,46.1,30.50,NW,317,0.0,0.0,86,0.00,,,0.00,0.0,custom,2013-03-01 10:41:00,
2013-03-01 02:46:00,50.1,46.1,30.50,NW,317,0.0,0.0,86,0.00,,,0.00,0.0,custom,2013-03-01 10:46:00,
2013-03-01 02:51:00,50.0,46.0,30.50,NW,317,0.0,0.0,86,0.00,,,0.00,0.0,custom,2013-03-01 10:51:00,
2013-03-01 02:56:00,49.9,45.9,30.50,NW,317,0.0,0.0,86,0.00,,,0.00,0.0,custom,2013-03-01 10:56:00,
2013-03-01 03:01:00,49.8,46.1,30.50,NW,317,0.0,0.0,87,0.00,,,0.00,0.0,custom,2013-03-01 11:01:00,
2013-03-01 03:06:00,49.7,46.0,30.50,NW,317,0.0,0.0,87,0.00,,,0.00,0.0,custom,2013-03-01 11:06:00,
2013-03-01 03:11:00,49.7,45.7,30.50,NW,317,0.0,0.0,86,0.00,,,0.00,0.0,custom,2013-03-01 11:11:00,
2013-03-01 03:16:00,49.7,45.7,30.50,NW,317,0.0,0.0,86,0.00,,,0.00,0.0,custom,2013-03-01 11:16:00,
2013-03-01 03:21:00,49.7,45.7,30.50,NW,317,0.0,0.0,86,0.00,,,0.00,0.0,custom,2013-03-01 11:21:00,
2013-03-01 03:26:00,49.6,45.6,30.50,NW,310,0.0,0.0,86,0.00,,,0.00,0.0,custom,2013-03-01 11:26:00,
2013-03-01 03:31:00,49.4,45.4,30.50,NW,309,0.0,0.0,86,0.00,,,0.00,0.0,custom,2013-03-01 11:31:00,
2013-03-01 03:36:00,49.4,45.4,30.50,NW,309,0.0,0.0,86,0.00,,,0.00,0.0,custom,2013-03-01 11:36:00,
2013-03-01 03:41:00,49.4,45.4,30.50,NW,309,0.0,0.0,86,0.00,,,0.00,0.0,custom,2013-03-01 11:41:00,
2013-03-01 03:46:00,49.3,45.3,30.50,NW,309,0.0,0.0,86,0.00,,,0.00,0.0,custom,2013-03-01 11:46:00,
2013-03-01 03:51:00,49.2,45.2,30.50,NW,309,0.0,0.0,86,0.00,,,0.00,0.0,custom,2013-03-01 11:51:00,
2013-03-01 03:56:00,49.1,45.1,30.49,NW,309,0.0,0.0,86,0.00,,,0.00,0.0,custom,2013-03-01 11:56:00,
2013-03-01 04:01:00,49.0,45.3,30.49,NW,309,0.0,0.0,87,0.00,,,0.00,0.0,custom,2013-03-01 12:01:00,
2013-03-01 04:06:00,48.9,44.9,30.49,NW,309,0.0,0.0,86,0.00,,,0.00,0.0,custom,2013-03-01 12:06:00,
2013-03-01 04:11:00,48.8,44.8,30.50,NW,309,0.0,0.0,86,0.00,,,0.00,0.0,custom,2013-03-01 12:11:00,
2013-03-01 04:16:00,48.8,44.8,30.50,NW,309,0.0,0.0,86,0.00,,,0.00,0.0,custom,2013-03-01 12:16:00,
2013-03-01 04:21:00,48.7,44.7,30.50,NW,309,0.0,0.0,86,0.00,,,0.00,0.0,custom,2013-03-01 12:21:00,
2013-03-01 04:26:00,48.7,44.7,30.50,NW,309,0.0,0.0,86,0.00,,,0.00,0.0,custom,2013-03-01 12:26:00,
2013-03-01 04:31:00,48.7,44.7,30.50,NW,309,0.0,0.0,86,0.00,,,0.00,0.0,custom,2013-03-01 12:31:00,
2013-03-01 04:36:00,48.6,44.6,30.49,NW,309,0.0,0.0,86,0.00,,,0.00,0.0,custom,2013-03-01 12:36:00,
2013-03-01 04:41:00,48.6,44.6,30.50,NW,309,0.0,0.0,86,0.00,,,0.00,0.0,custom,2013-03-01 12:41:00,
2013-03-01 04:46:00,48.5,44.5,30.50,NW,309,0.0,0.0,86,0.00,,,0.00,0.0,custom,2013-03-01 12:46:00,
2013-03-01 04:51:00,48.5,44.5,30.49,NW,309,0.0,0.0,86,0.00,,,0.00,0.0,custom,2013-03-01 12:51:00,
2013-03-01 04:56:00,48.4,44.4,30.49,NW,309,0.0,0.0,86,0.00,,,0.00,0.0,custom,2013-03-01 12:56:00,
2013-03-01 05:01:00,48.4,44.4,30.49,NW,309,0.0,0.0,86,0.00,,,0.00,0.0,custom,2013-03-01 13:01:00,
2013-03-01 05:06:00,48.4,44.4,30.50,NW,309,0.0,0.0,86,0.00,,,0.00,0.0,custom,2013-03-01 13:06:00,
2013-03-01 05:11:00,48.3,44.3,30.49,NW,309,0.0,0.0,86,0.00,,,0.00,0.0,custom,2013-03-01 13:11:00,
2013-03-01 05:16:00,48.3,44.3,30.49,NW,309,0.0,0.0,86,0.00,,,0.00,0.0,custom,2013-03-01 13:16:00,
2013-03-01 05:21:00,48.3,44.3,30.49,NW,309,0.0,0.0,86,0.00,,,0.00,0.0,custom,2013-03-01 13:21:00,
2013-03-01 05:26:00,48.4,44.4,30.49,NW,309,0.0,0.0,86,0.00,,,0.00,0.0,custom,2013-03-01 13:26:00,
2013-03-01 05:31:00,48.4,44.4,30.49,NW,309,0.0,0.0,86,0.00,,,0.00,0.0,custom,2013-03-01 13:31:00,
2013-03-01 05:36:00,48.3,44.3,30.49,NW,309,0.0,0.0,86,0.00,,,0.00,0.0,custom,2013-03-01 13:36:00,
2013-03-01 05:41:00,48.3,44.3,30.48,NW,309,0.0,0.0,86,0.00,,,0.00,0.0,custom,2013-03-01 13:41:00,
2013-03-01 05:46:00,48.1,44.1,30.48,NW,309,0.0,0.0,86,0.00,,,0.00,0.0,custom,2013-03-01 13:46:00,
2013-03-01 05:51:00,48.0,44.0,30.48,NW,309,0.0,0.0,86,0.00,,,0.00,0.0,custom,2013-03-01 13:51:00,
2013-03-01 05:56:00,47.9,43.9,30.48,NW,309,0.0,0.0,86,0.00,,,0.00,0.0,custom,2013-03-01 13:56:00,
2013-03-01 06:01:00,47.7,44.0,30.49,NW,309,0.0,0.0,87,0.00,,,0.00,0.0,custom,2013-03-01 14:01:00,
2013-03-01 06:06:00,47.5,43.8,30.48,NW,309,0.0,0.0,87,0.00,,,0.00,0.0,custom,2013-03-01 14:06:00,
2013-03-01 06:11:00,47.4,43.7,30.48,NW,309,0.0,0.0,87,0.00,,,0.00,0.0,custom,2013-03-01 14:11:00,
2013-03-01 06:16:00,47.3,43.6,30.48,NW,309,0.0,0.0,87,0.00,,,0.00,0.0,custom,2013-03-01 14:16:00,
2013-03-01 06:21:00,47.2,43.5,30.48,NW,309,0.0,0.0,87,0.00,,,0.00,0.0,custom,2013-03-01 14:21:00,
2013-03-01 06:26:00,47.0,43.3,30.48,NW,309,0.0,0.0,87,0.00,,,0.00,0.0,custom,2013-03-01 14:26:00,
2013-03-01 06:31:00,46.8,43.1,30.48,NW,309,0.0,0.0,87,0.00,,,0.00,0.0,custom,2013-03-01 14:31:00,
2013-03-01 06:36:00,46.7,43.0,30.48,NW,309,0.0,0.0,87,0.00,,,0.00,0.0,custom,2013-03-01 14:36:00,
2013-03-01 06:41:00,46.6,42.9,30.48,NW,309,0.0,0.0,87,0.00,,,0.00,0.0,custom,2013-03-01 14:41:00,
2013-03-01 06:46:00,46.5,42.8,30.48,NW,309,0.0,0.0,87,0.00,,,0.00,5.0,custom,2013-03-01 14:46:00,
2013-03-01 06:51:00,46.6,42.6,30.48,NW,309,0.0,0.0,86,0.00,,,0.00,9.0,custom,2013-03-01 14:51:00,
2013-03-01 07:01:00,46.8,42.8,30.48,NW,309,0.0,0.0,86,0.00,,,0.00,12.0,custom,2013-03-01 15:01:00,
2013-03-01 07:06:00,46.8,42.8,30.48,NW,309,0.0,0.0,86,0.00,,,0.00,16.0,custom,2013-03-01 15:06:00,
2013-03-01 07:11:00,46.7,42.7,30.48,NW,309,0.0,0.0,86,0.00,,,0.00,21.0,custom,2013-03-01 15:11:00,
2013-03-01 07:16:00,46.6,42.6,30.48,NW,309,0.0,0.0,86,0.00,,,0.00,25.0,custom,2013-03-01 15:16:00,
2013-03-01 07:21:00,46.6,42.6,30.48,NW,309,0.0,0.0,86,0.00,,,0.00,33.0,custom,2013-03-01 15:21:00,
2013-03-01 07:26:00,46.6,42.6,30.48,NW,309,0.0,0.0,86,0.00,,,0.00,44.0,custom,2013-03-01 15:26:00,
2013-03-01 07:31:00,46.6,42.6,30.48,NW,309,0.0,0.0,86,0.00,,,0.00,44.0,custom,2013-03-01 15:31:00,
2013-03-01 07:36:00,46.6,42.6,30.48,NW,309,0.0,0.0,86,0.00,,,0.00,47.0,custom,2013-03-01 15:36:00,
2013-03-01 07:41:00,46.7,42.7,30.47,NW,309,0.0,0.0,86,0.00,,,0.00,53.0,custom,2013-03-01 15:41:00,
2013-03-01 07:46:00,46.8,42.8,30.47,NW,309,0.0,0.0,86,0.00,,,0.00,63.0,custom,2013-03-01 15:46:00,
2013-03-01 07:51:00,47.0,43.0,30.47,NW,309,0.0,0.0,86,0.00,,,0.00,69.0,custom,2013-03-01 15:51:00,
2013-03-01 07:56:00,47.2,43.2,30.47,NW,309,0.0,0.0,86,0.00,,,0.00,72.0,custom,2013-03-01 15:56:00,
2013-03-01 08:01:00,47.4,43.4,30.47,NW,309,0.0,0.0,86,0.00,,,0.00,88.0,custom,2013-03-01 16:01:00,
2013-03-01 08:06:00,47.5,43.5,30.47,NW,309,0.0,0.0,86,0.00,,,0.00,77.0,custom,2013-03-01 16:06:00,
2013-03-01 08:11:00,47.6,43.6,30.47,NW,309,0.0,0.0,86,0.00,,,0.00,95.0,custom,2013-03-01 16:11:00,
2013-03-01 08:16:00,47.7,43.7,30.47,NW,309,0.0,0.0,86,0.00,,,0.00,128.0,custom,2013-03-01 16:16:00,
2013-03-01 08:21:00,47.9,43.9,30.47,NW,309,0.0,0.0,86,0.00,,,0.00,121.0,custom,2013-03-01 16:21:00,
2013-03-01 08:26:00,48.2,44.2,30.46,NW,309,0.0,0.0,86,0.00,,,0.00,137.0,custom,2013-03-01 16:26:00,
2013-03-01 08:31:00,48.4,44.4,30.47,NW,309,0.0,0.0,86,0.00,,,0.00,141.0,custom,2013-03-01 16:31:00,
2013-03-01 08:36:00,48.5,44.5,30.46,NW,309,0.0,0.0,86,0.00,,,0.00,202.0,custom,2013-03-01 16:36:00,
2013-03-01 08:41:00,48.8,44.8,30.46,NW,309,0.0,0.0,86,0.00,,,0.00,169.0,custom,2013-03-01 16:41:00,
2013-03-01 08:46:00,49.2,45.2,30.46,NW,309,0.0,0.0,86,0.00,,,0.00,176.0,custom,2013-03-01 16:46:00,
2013-03-01 08:51:00,49.5,45.5,30.46,NW,309,0.0,0.0,86,0.00,,,0.00,197.0,custom,2013-03-01 16:51:00,
2013-03-01 08:56:00,49.9,45.9,30.46,NW,309,0.0,0.0,86,0.00,,,0.00,149.0,custom,2013-03-01 16:56:00,
2013-03-01 09:01:00,50.4,46.7,30.46,NW,310,1.0,0.0,87,0.00,,,0.00,316.0,custom,2013-03-01 17:01:00,
2013-03-01 09:06:00,50.8,47.1,30.46,NNE,17,1.0,0.0,87,0.00,,,0.00,114.0,custom,2013-03-01 17:06:00,
2013-03-01 09:11:00,51.3,47.6,30.46,NNE,17,0.0,0.0,87,0.00,,,0.00,190.0,custom,2013-03-01 17:11:00,
2013-03-01 09:16:00,51.7,47.6,30.46,NNE,17,0.0,0.0,86,0.00,,,0.00,171.0,custom,2013-03-01 17:16:00,
2013-03-01 09:21:00,52.3,48.2,30.45,NNE,17,1.0,1.0,86,0.00,,,0.00,308.0,custom,2013-03-01 17:21:00,
2013-03-01 09:26:00,52.8,48.7,30.45,North,9,1.0,0.0,86,0.00,,,0.00,144.0,custom,2013-03-01 17:26:00,
2013-03-01 09:36:00,54.1,50.3,30.45,North,9,1.0,0.0,87,0.00,,,0.00,380.0,custom,2013-03-01 17:36:00,
2013-03-01 09:41:00,55.0,51.8,30.45,North,9,1.0,0.0,89,0.00,,,0.00,504.0,custom,2013-03-01 17:41:00,
2013-03-01 09:46:00,55.6,52.1,30.45,North,9,0.0,0.0,88,0.00,,,0.00,548.0,custom,2013-03-01 17:46:00,
2013-03-01 09:51:00,56.4,52.9,30.45,North,9,0.0,1.0,88,0.00,,,0.00,555.0,custom,2013-03-01 17:51:00,
2013-03-01 09:56:00,57.4,52.6,30.45,North,9,0.0,0.0,84,0.00,,,0.00,571.0,custom,2013-03-01 17:56:00,
2013-03-01 10:01:00,58.2,52.7,30.45,North,9,1.0,2.0,82,0.00,,,0.00,585.0,custom,2013-03-01 18:01:00,
2013-03-01 10:06:00,59.0,52.8,30.45,North,9,1.0,0.0,80,0.00,,,0.00,594.0,custom,2013-03-01 18:06:00,
2013-03-01 10:11:00,59.8,52.9,30.45,NNE,25,1.0,2.0,78,0.00,,,0.00,606.0,custom,2013-03-01 18:11:00,
2013-03-01 10:16:00,60.6,53.0,30.44,NNE,25,1.0,1.0,76,0.00,,,0.00,617.0,custom,2013-03-01 18:16:00,
2013-03-01 10:21:00,61.4,52.7,30.45,North,355,1.0,0.0,73,0.00,,,0.00,628.0,custom,2013-03-01 18:21:00,
2013-03-01 10:26:00,62.2,53.4,30.44,ENE,72,1.0,1.0,73,0.00,,,0.00,631.0,custom,2013-03-01 18:26:00,
2013-03-01 10:31:00,62.8,53.6,30.45,NNE,13,1.0,1.0,72,0.00,,,0.00,638.0,custom,2013-03-01 18:31:00,
2013-03-01 10:36:00,63.3,54.1,30.44,North,350,1.0,1.0,72,0.00,,,0.00,649.0,custom,2013-03-01 18:36:00,
2013-03-01 10:41:00,63.5,53.5,30.44,North,355,1.0,1.0,70,0.00,,,0.00,657.0,custom,2013-03-01 18:41:00,
2013-03-01 10:46:00,63.8,53.8,30.44,North,350,1.0,0.0,70,0.00,,,0.00,668.0,custom,2013-03-01 18:46:00,
2013-03-01 10:51:00,63.9,53.9,30.44,NNW,333,1.0,2.0,70,0.00,,,0.00,675.0,custom,2013-03-01 18:51:00,
2013-03-01 10:56:00,63.7,53.3,30.44,North,360,1.0,1.0,69,0.00,,,0.00,680.0,custom,2013-03-01 18:56:00,
2013-03-01 11:01:00,63.5,53.5,30.44,NNE,19,2.0,2.0,70,0.00,,,0.00,687.0,custom,2013-03-01 19:01:00,
2013-03-01 11:06:00,63.1,53.2,30.44,NNW,334,2.0,2.0,70,0.00,,,0.00,693.0,custom,2013-03-01 19:06:00,
2013-03-01 11:11:00,63.1,52.8,30.44,NW,319,1.0,1.0,69,0.00,,,0.00,696.0,custom,2013-03-01 19:11:00,
2013-03-01 11:16:00,63.2,52.9,30.44,ENE,58,1.0,1.0,69,0.00,,,0.00,708.0,custom,2013-03-01 19:16:00,
2013-03-01 11:21:00,62.8,52.5,30.44,East,83,1.0,0.0,69,0.00,,,0.00,708.0,custom,2013-03-01 19:21:00,
2013-03-01 11:26:00,62.9,53.0,30.43,East,83,1.0,0.0,70,0.00,,,0.00,714.0,custom,2013-03-01 19:26:00,
2013-03-01 11:31:00,63.6,53.2,30.43,NNW,346,0.0,2.0,69,0.00,,,0.00,717.0,custom,2013-03-01 19:31:00,
2013-03-01 11:41:00,64.9,53.3,30.43,NNW,333,1.0,1.0,66,0.00,,,0.00,722.0,custom,2013-03-01 19:41:00,
2013-03-01 11:46:00,65.5,53.0,30.43,NNW,346,1.0,1.0,64,0.00,,,0.00,728.0,custom,2013-03-01 19:46:00,
2013-03-01 11:51:00,66.0,53.0,30.42,NNW,327,1.0,0.0,63,0.00,,,0.00,731.0,custom,2013-03-01 19:51:00,
2013-03-01 11:56:00,66.7,53.3,30.42,WNW,301,0.0,2.0,62,0.00,,,0.00,735.0,custom,2013-03-01 19:56:00,
2013-03-01 12:01:00,67.3,52.0,30.41,NW,313,1.0,2.0,58,0.00,,,0.00,735.0,custom,2013-03-01 20:01:00,
2013-03-01 12:06:00,67.5,52.7,30.41,North,360,1.0,0.0,59,0.00,,,0.00,735.0,custom,2013-03-01 20:06:00,
2013-03-01 12:11:00,67.9,51.1,30.41,North,360,1.0,2.0,55,0.00,,,0.00,737.0,custom,2013-03-01 20:11:00,
2013-03-01 12:16:00,68.0,51.2,30.41,NNE,17,1.0,2.0,55,0.00,,,0.00,737.0,custom,2013-03-01 20:16:00,
2013-03-01 12:21:00,68.4,51.1,30.40,NNW,334,2.0,2.0,54,0.00,,,0.00,735.0,custom,2013-03-01 20:21:00,
2013-03-01 12:26:00,68.6,51.3,30.40,NNE,16,2.0,0.0,54,0.00,,,0.00,731.0,custom,2013-03-01 20:26:00,
2013-03-01 12:31:00,68.9,51.6,30.40,North,355,1.0,2.0,54,0.00,,,0.00,731.0,custom,2013-03-01 20:31:00,
2013-03-01 12:36:00,69.3,52.9,30.39,NNE,27,1.0,1.0,56,0.00,,,0.00,731.0,custom,2013-03-01 20:36:00,
2013-03-01 12:41:00,69.5,54.1,30.39,NNE,17,1.0,0.0,58,0.00,,,0.00,729.0,custom,2013-03-01 20:41:00,
2013-03-01 12:46:00,69.7,53.8,30.38,NNE,17,1.0,3.0,57,0.00,,,0.00,728.0,custom,2013-03-01 20:46:00,
2013-03-01 12:51:00,69.8,52.4,30.38,NNW,338,1.0,3.0,54,0.00,,,0.00,722.0,custom,2013-03-01 20:51:00,
2013-03-01 13:01:00,70.2,51.2,30.37,NNW,329,2.0,3.0,51,0.00,,,0.00,724.0,custom,2013-03-01 21:01:00,
2013-03-01 13:06:00,70.2,52.3,30.37,NNE,28,1.0,3.0,53,0.00,,,0.00,714.0,custom,2013-03-01 21:06:00,
2013-03-01 13:11:00,70.4,52.4,30.37,NNE,12,2.0,2.0,53,0.00,,,0.00,698.0,custom,2013-03-01 21:11:00,
2013-03-01 13:16:00,70.4,52.4,30.36,NNW,330,2.0,2.0,53,0.00,,,0.00,710.0,custom,2013-03-01 21:16:00,
2013-03-01 13:21:00,70.6,51.6,30.36,NNE,32,1.0,1.0,51,0.00,,,0.00,656.0,custom,2013-03-01 21:21:00,
2013-03-01 13:26:00,70.7,51.7,30.36,NNW,331,1.0,0.0,51,0.00,,,0.00,689.0,custom,2013-03-01 21:26:00,
2013-03-01 13:31:00,70.8,51.8,30.36,NW,309,1.0,0.0,51,0.00,,,0.00,650.0,custom,2013-03-01 21:31:00,
2013-03-01 13:36:00,70.8,51.8,30.36,North,360,1.0,0.0,51,0.00,,,0.00,585.0,custom,2013-03-01 21:36:00,
2013-03-01 13:41:00,70.9,51.3,30.35,North,360,0.0,2.0,50,0.00,,,0.00,508.0,custom,2013-03-01 21:41:00,
2013-03-01 13:46:00,71.1,51.5,30.35,WNW,298,0.0,1.0,50,0.00,,,0.00,635.0,custom,2013-03-01 21:46:00,
2013-03-01 13:51:00,71.3,51.7,30.35,NNW,333,1.0,2.0,50,0.00,,,0.00,635.0,custom,2013-03-01 21:51:00,
2013-03-01 13:56:00,71.4,51.2,30.34,NNW,331,2.0,0.0,49,0.00,,,0.00,677.0,custom,2013-03-01 21:56:00,
2013-03-01 14:01:00,71.7,52.1,30.34,South,190,1.0,1.0,50,0.00,,,0.00,631.0,custom,2013-03-01 22:01:00,
2013-03-01 14:06:00,72.2,51.4,30.34,NNE,13,1.0,1.0,48,0.00,,,0.00,615.0,custom,2013-03-01 22:06:00,
2013-03-01 14:11:00,72.3,52.1,30.34,NE,38,1.0,1.0,49,0.00,,,0.00,613.0,custom,2013-03-01 22:11:00,
2013-03-01 14:16:00,72.4,52.1,30.33,North,350,1.0,4.0,49,0.00,,,0.00,570.0,custom,2013-03-01 22:16:00,
2013-03-01 14:21:00,72.5,51.7,30.33,NE,44,1.0,0.0,48,0.00,,,0.00,545.0,custom,2013-03-01 22:21:00,
2013-03-01 14:26:00,72.4,51.6,30.33,WNW,294,2.0,2.0,48,0.00,,,0.00,570.0,custom,2013-03-01 22:26:00,
2013-03-01 14:31:00,72.4,51.6,30.33,NNW,333,1.0,1.0,48,0.00,,,0.00,563.0,custom,2013-03-01 22:31:00,
2013-03-01 14:36:00,72.6,51.8,30.32,NNW,337,1.0,2.0,48,0.00,,,0.00,533.0,custom,2013-03-01 22:36:00,
2013-03-01 14:41:00,72.6,51.2,30.32,NNE,22,1.0,0.0,47,0.00,,,0.00,547.0,custom,2013-03-01 22:41:00,
2013-03-01 14:46:00,72.7,51.9,30.32,NNW,327,2.0,2.0,48,0.00,,,0.00,526.0,custom,2013-03-01 22:46:00,
2013-03-01 14:51:00,72.7,51.9,30.32,NW,323,2.0,2.0,48,0.00,,,0.00,383.0,custom,2013-03-01 22:51:00,
2013-03-01 14:56:00,72.7,51.9,30.31,NW,315,1.0,2.0,48,0.00,,,0.00,360.0,custom,2013-03-01 22:56:00,
2013-03-01 15:01:00,72.6,51.8,30.32,NW,311,1.0,0.0,48,0.00,,,0.00,397.0,custom,2013-03-01 23:01:00,
2013-03-01 15:06:00,72.6,51.8,30.31,NE,37,1.0,3.0,48,0.00,,,0.00,497.0,custom,2013-03-01 23:06:00,
2013-03-01 15:11:00,72.8,52.0,30.31,NNE,23,1.0,0.0,48,0.00,,,0.00,308.0,custom,2013-03-01 23:11:00,
2013-03-01 15:21:00,72.7,51.9,30.31,NW,321,1.0,2.0,48,0.00,,,0.00,209.0,custom,2013-03-01 23:21:00,
2013-03-01 15:26:00,72.6,51.2,30.32,WNW,287,2.0,2.0,47,0.00,,,0.00,86.0,custom,2013-03-01 23:26:00,
2013-03-01 15:36:00,72.4,51.6,30.31,NW,325,1.0,1.0,48,0.00,,,0.00,313.0,custom,2013-03-01 23:36:00,
2013-03-01 15:41:00,72.3,51.5,30.31,NW,310,1.0,0.0,48,0.00,,,0.00,67.0,custom,2013-03-01 23:41:00,
2013-03-01 15:46:00,72.3,51.5,30.31,East,95,1.0,1.0,48,0.00,,,0.00,56.0,custom,2013-03-01 23:46:00,
2013-03-01 15:51:00,72.2,52.0,30.31,NNW,336,1.0,0.0,49,0.00,,,0.00,49.0,custom,2013-03-01 23:51:00,
2013-03-01 15:56:00,72.2,51.4,30.30,NE,46,1.0,1.0,48,0.00,,,0.00,47.0,custom,2013-03-01 23:56:00,
2013-03-01 16:06:00,72.1,51.3,30.30,NNW,332,1.0,0.0,48,0.00,,,0.00,51.0,custom,2013-03-02 00:06:00,
2013-03-01 16:11:00,72.0,51.8,30.30,North,350,1.0,0.0,49,0.00,,,0.00,49.0,custom,2013-03-02 00:11:00,
2013-03-01 16:16:00,72.1,51.9,30.30,North,360,0.0,0.0,49,0.00,,,0.00,81.0,custom,2013-03-02 00:16:00,
2013-03-01 16:21:00,72.0,51.8,30.30,North,10,1.0,0.0,49,0.00,,,0.00,60.0,custom,2013-03-02 00:21:00,
2013-03-01 16:26:00,72.0,51.8,30.30,NW,322,1.0,0.0,49,0.00,,,0.00,46.0,custom,2013-03-02 00:26:00,
2013-03-01 16:31:00,71.9,51.7,30.29,North,350,1.0,1.0,49,0.00,,,0.00,111.0,custom,2013-03-02 00:31:00,
2013-03-01 16:36:00,71.9,52.2,30.29,NNE,14,1.0,2.0,50,0.00,,,0.00,104.0,custom,2013-03-02 00:36:00,
2013-03-01 16:41:00,71.8,52.1,30.29,NW,319,1.0,0.0,50,0.00,,,0.00,76.0,custom,2013-03-02 00:41:00,
2013-03-01 16:46:00,71.6,52.0,30.29,NW,309,1.0,1.0,50,0.00,,,0.00,67.0,custom,2013-03-02 00:46:00,
2013-03-01 16:51:00,71.4,51.8,30.29,NNW,336,1.0,0.0,50,0.00,,,0.00,33.0,custom,2013-03-02 00:51:00,
2013-03-01 17:01:00,70.9,51.9,30.29,NNW,330,1.0,1.0,51,0.00,,,0.00,32.0,custom,2013-03-02 01:01:00,
2013-03-01 17:06:00,70.5,51.5,30.29,North,355,1.0,1.0,51,0.00,,,0.00,26.0,custom,2013-03-02 01:06:00,
2013-03-01 17:11:00,70.2,51.2,30.29,NNW,340,1.0,1.0,51,0.00,,,0.00,25.0,custom,2013-03-02 01:11:00,
2013-03-01 17:16:00,69.8,50.8,30.29,North,355,1.0,0.0,51,0.00,,,0.00,23.0,custom,2013-03-02 01:16:00,
2013-03-01 17:21:00,69.4,51.0,30.29,North,360,0.0,0.0,52,0.00,,,0.00,21.0,custom,2013-03-02 01:21:00,
2013-03-01 17:26:00,69.1,51.2,30.30,NNW,340,0.0,0.0,53,0.00,,,0.00,21.0,custom,2013-03-02 01:26:00,
2013-03-01 17:31:00,68.8,51.0,30.30,North,355,0.0,1.0,53,0.00,,,0.00,21.0,custom,2013-03-02 01:31:00,
2013-03-01 17:36:00,68.4,50.6,30.30,NNW,348,1.0,3.0,53,0.00,,,0.00,21.0,custom,2013-03-02 01:36:00,
2013-03-01 17:41:00,68.1,50.8,30.30,NNW,347,1.0,0.0,54,0.00,,,0.00,19.0,custom,2013-03-02 01:41:00,
2013-03-01 17:46:00,67.8,51.0,30.30,NNW,348,0.0,0.0,55,0.00,,,0.00,19.0,custom,2013-03-02 01:46:00,
2013-03-01 17:51:00,67.5,51.2,30.30,WNW,296,0.0,0.0,56,0.00,,,0.00,16.0,custom,2013-03-02 01:51:00,
2013-03-01 17:56:00,67.1,50.9,30.30,WNW,296,0.0,0.0,56,0.00,,,0.00,9.0,custom,2013-03-02 01:56:00,
2013-03-01 18:01:00,66.7,51.0,30.30,WNW,296,0.0,0.0,57,0.00,,,0.00,0.0,custom,2013-03-02 02:01:00,
2013-03-01 18:06:00,66.3,51.1,30.30,WNW,296,0.0,0.0,58,0.00,,,0.00,0.0,custom,2013-03-02 02:06:00,
2013-03-01 18:11:00,65.9,50.7,30.30,WNW,297,0.0,0.0,58,0.00,,,0.00,0.0,custom,2013-03-02 02:11:00,
2013-03-01 18:16:00,65.5,50.3,30.30,WNW,296,0.0,0.0,58,0.00,,,0.00,0.0,custom,2013-03-02 02:16:00,
2013-03-01 18:26:00,64.8,50.6,30.30,WNW,296,0.0,0.0,60,0.00,,,0.00,0.0,custom,2013-03-02 02:26:00,
2013-03-01 18:31:00,64.4,50.7,30.30,WNW,296,0.0,0.0,61,0.00,,,0.00,0.0,custom,2013-03-02 02:31:00,
2013-03-01 18:41:00,63.5,50.7,30.30,WNW,297,0.0,0.0,63,0.00,,,0.00,0.0,custom,2013-03-02 02:41:00,
2013-03-01 18:46:00,63.1,50.7,30.30,WNW,297,0.0,0.0,64,0.00,,,0.00,0.0,custom,2013-03-02 02:46:00,
2013-03-01 18:51:00,62.6,50.7,30.31,WNW,296,0.0,0.0,65,0.00,,,0.00,0.0,custom,2013-03-02 02:51:00,
2013-03-01 18:56:00,62.2,50.7,30.31,WNW,297,0.0,0.0,66,0.00,,,0.00,0.0,custom,2013-03-02 02:56:00,
2013-03-01 19:01:00,61.8,50.7,30.31,WNW,297,0.0,0.0,67,0.00,,,0.00,0.0,custom,2013-03-02 03:01:00,
2013-03-01 19:06:00,61.5,50.4,30.31,WNW,296,0.0,0.0,67,0.00,,,0.00,0.0,custom,2013-03-02 03:06:00,
2013-03-01 19:11:00,61.1,50.1,30.31,WNW,296,0.0,0.0,67,0.00,,,0.00,0.0,custom,2013-03-02 03:11:00,
2013-03-01 19:16:00,60.7,50.1,30.31,WNW,297,0.0,0.0,68,0.00,,,0.00,0.0,custom,2013-03-02 03:16:00,
2013-03-01 19:21:00,60.3,50.1,30.31,WNW,297,0.0,0.0,69,0.00,,,0.00,0.0,custom,2013-03-02 03:21:00,
2013-03-01 19:26:00,59.9,50.1,30.31,WNW,296,0.0,0.0,70,0.00,,,0.00,0.0,custom,2013-03-02 03:26:00,
2013-03-01 19:36:00,59.0,49.6,30.32,WNW,297,0.0,0.0,71,0.00,,,0.00,0.0,custom,2013-03-02 03:36:00,
2013-03-01 19:41:00,59.0,50.0,30.32,WNW,296,0.0,0.0,72,0.00,,,0.00,0.0,custom,2013-03-02 03:41:00,
2013-03-01 19:46:00,58.6,49.6,30.32,WNW,296,0.0,0.0,72,0.00,,,0.00,0.0,custom,2013-03-02 03:46:00,
2013-03-01 19:51:00,58.3,49.7,30.32,WNW,296,0.0,0.0,73,0.00,,,0.00,0.0,custom,2013-03-02 03:51:00,
2013-03-01 19:56:00,58.0,49.4,30.32,WNW,297,0.0,0.0,73,0.00,,,0.00,0.0,custom,2013-03-02 03:56:00,
2013-03-01 20:01:00,57.7,49.5,30.32,WNW,297,0.0,0.0,74,0.00,,,0.00,0.0,custom,2013-03-02 04:01:00,
2013-03-01 20:06:00,57.3,49.4,30.32,WNW,296,0.0,0.0,75,0.00,,,0.00,0.0,custom,2013-03-02 04:06:00,
2013-03-01 20:11:00,57.1,49.3,30.33,WNW,297,0.0,0.0,75,0.00,,,0.00,0.0,custom,2013-03-02 04:11:00,
2013-03-01 20:16:00,56.8,49.0,30.32,WNW,297,0.0,0.0,75,0.00,,,0.00,0.0,custom,2013-03-02 04:16:00,
2013-03-01 20:26:00,56.2,49.1,30.32,WNW,296,0.0,0.0,77,0.00,,,0.00,0.0,custom,2013-03-02 04:26:00,
2013-03-01 20:31:00,56.0,48.9,30.32,WNW,296,0.0,0.0,77,0.00,,,0.00,0.0,custom,2013-03-02 04:31:00,
2013-03-01 20:36:00,55.7,48.9,30.32,WNW,297,0.0,0.0,78,0.00,,,0.00,0.0,custom,2013-03-02 04:36:00,
2013-03-01 20:41:00,55.4,48.7,30.32,WNW,296,0.0,0.0,78,0.00,,,0.00,0.0,custom,2013-03-02 04:41:00,
2013-03-01 20:46:00,55.2,48.8,30.32,WNW,296,0.0,0.0,79,0.00,,,0.00,0.0,custom,2013-03-02 04:46:00,
2013-03-01 20:56:00,54.8,48.4,30.32,WNW,296,0.0,0.0,79,0.00,,,0.00,0.0,custom,2013-03-02 04:56:00,
2013-03-01 21:01:00,54.6,48.6,30.32,WNW,296,0.0,0.0,80,0.00,,,0.00,0.0,custom,2013-03-02 05:01:00,
2013-03-01 21:06:00,54.5,48.8,30.32,WNW,297,0.0,0.0,81,0.00,,,0.00,0.0,custom,2013-03-02 05:06:00,
2013-03-01 21:11:00,54.4,48.7,30.32,WNW,297,0.0,0.0,81,0.00,,,0.00,0.0,custom,2013-03-02 05:11:00,
2013-03-01 21:16:00,54.2,48.5,30.32,WNW,296,0.0,0.0,81,0.00,,,0.00,0.0,custom,2013-03-02 05:16:00,
2013-03-01 21:21:00,54.1,48.4,30.33,WNW,296,0.0,0.0,81,0.00,,,0.00,0.0,custom,2013-03-02 05:21:00,
2013-03-01 21:26:00,53.9,48.2,30.33,WNW,297,0.0,0.0,81,0.00,,,0.00,0.0,custom,2013-03-02 05:26:00,
2013-03-01 21:31:00,53.8,48.1,30.33,WNW,297,0.0,0.0,81,0.00,,,0.00,0.0,custom,2013-03-02 05:31:00,
2013-03-01 21:36:00,53.7,48.3,30.33,WNW,296,0.0,0.0,82,0.00,,,0.00,0.0,custom,2013-03-02 05:36:00,
2013-03-01 21:41:00,53.5,47.8,30.33,WNW,296,0.0,0.0,81,0.00,,,0.00,0.0,custom,2013-03-02 05:41:00,
2013-03-01 21:46:00,53.3,47.9,30.33,WNW,297,0.0,0.0,82,0.00,,,0.00,0.0,custom,2013-03-02 05:46:00,
2013-03-01 21:51:00,53.2,47.8,30.33,WNW,296,0.0,0.0,82,0.00,,,0.00,0.0,custom,2013-03-02 05:51:00,
2013-03-01 21:56:00,53.0,47.7,30.32,WNW,296,0.0,0.0,82,0.00,,,0.00,0.0,custom,2013-03-02 05:56:00,
2013-03-01 22:01:00,52.7,47.4,30.32,WNW,297,0.0,0.0,82,0.00,,,0.00,0.0,custom,2013-03-02 06:01:00,
2013-03-01 22:06:00,52.6,47.6,30.33,WNW,297,0.0,0.0,83,0.00,,,0.00,0.0,custom,2013-03-02 06:06:00,
2013-03-01 22:16:00,52.1,47.1,30.32,WNW,296,0.0,0.0,83,0.00,,,0.00,0.0,custom,2013-03-02 06:16:00,
2013-03-01 22:21:00,52.0,47.0,30.32,WNW,297,0.0,0.0,83,0.00,,,0.00,0.0,custom,2013-03-02 06:21:00,
2013-03-01 22:26:00,51.8,47.1,30.32,WNW,297,0.0,0.0,84,0.00,,,0.00,0.0,custom,2013-03-02 06:26:00,
2013-03-01 22:31:00,51.6,46.9,30.32,WNW,296,0.0,0.0,84,0.00,,,0.00,0.0,custom,2013-03-02 06:31:00,
2013-03-01 22:36:00,51.5,46.8,30.32,WNW,296,0.0,0.0,84,0.00,,,0.00,0.0,custom,2013-03-02 06:36:00,
2013-03-01 22:41:00,51.4,47.0,30.32,WNW,297,0.0,0.0,85,0.00,,,0.00,0.0,custom,2013-03-02 06:41:00,
2013-03-01 22:46:00,51.2,46.8,30.32,WNW,297,0.0,0.0,85,0.00,,,0.00,0.0,custom,2013-03-02 06:46:00,
2013-03-01 22:51:00,51.1,46.7,30.32,WNW,297,0.0,0.0,85,0.00,,,0.00,0.0,custom,2013-03-02 06:51:00,
2013-03-01 22:56:00,51.0,46.7,30.32,WNW,296,0.0,0.0,85,0.00,,,0.00,0.0,custom,2013-03-02 06:56:00,
2013-03-01 23:01:00,50.8,46.5,30.32,WNW,296,0.0,0.0,85,0.00,,,0.00,0.0,custom,2013-03-02 07:01:00,
2013-03-01 23:06:00,50.6,46.3,30.32,WNW,296,0.0,0.0,85,0.00,,,0.00,0.0,custom,2013-03-02 07:06:00,
2013-03-01 23:11:00,50.5,46.2,30.32,WNW,296,0.0,0.0,85,0.00,,,0.00,0.0,custom,2013-03-02 07:11:00,
2013-03-01 23:16:00,50.4,46.4,30.31,WNW,297,0.0,0.0,86,0.00,,,0.00,0.0,custom,2013-03-02 07:16:00,
2013-03-01 23:21:00,50.3,46.3,30.32,WNW,297,0.0,0.0,86,0.00,,,0.00,0.0,custom,2013-03-02 07:21:00,
2013-03-01 23:26:00,50.3,46.3,30.32,WNW,297,0.0,0.0,86,0.00,,,0.00,0.0,custom,2013-03-02 07:26:00,
2013-03-01 23:31:00,50.1,46.1,30.32,WNW,296,0.0,0.0,86,0.00,,,0.00,0.0,custom,2013-03-02 07:31:00,
2013-03-01 23:36:00,50.0,46.0,30.32,WNW,296,0.0,0.0,86,0.00,,,0.00,0.0,custom,2013-03-02 07:36:00,
2013-03-01 23:41:00,49.9,45.9,30.32,WNW,297,0.0,0.0,86,0.00,,,0.00,0.0,custom,2013-03-02 07:41:00,
2013-03-01 23:46:00,49.7,45.7,30.32,WNW,297,0.0,0.0,86,0.00,,,0.00,0.0,custom,2013-03-02 07:46:00,
2013-03-01 23:51:00,49.6,45.6,30.32,WNW,296,0.0,0.0,86,0.00,,,0.00,0.0,custom,2013-03-02 07:51:00,
2013-03-01 23:56:00,49.4,45.4,30.32,WNW,297,0.0,0.0,86,0.00,,,0.00,0.0,custom,2013-03-02 07:56:00,